User: anonymous   Login
Location: Maddington
(51.2000°N, 1.9167°W)
Time: 20:51:33
(UTC+00:00)
Language:

USA 229 - Orbit

View from above orbital plane
View from above orbital plane
View from above satellite
View from above satellite

Ground track
Ground track

The orbit data is extracted from the following two-line orbital elements,

1 37386U 11014A   20328.17922948 0.00000000  00000-0  00000-0 0    04
2 37386  63.4417  62.1745 0179990 358.9662   1.0338 13.40810681    00
Epoch (UTC): 23 November 2020 04:18:05
Eccentricity: 0.0179990
inclination: 63.4417°
perigee height: 971 km
apogee height: 1241 km
right ascension of ascending node: 62.1745°
argument of perigee: 358.9662°
revolutions per day: 13.40810681
mean anomaly at epoch: 1.0338°
orbit number at epoch: 0

The dashed part of the orbit path shows where the satellite is in the earth's shadow,  

DLR